Home   Weather   Cleburne   Past weeks
Flag for USA

Past Weather in Cleburne, Texas, USA — Yesterday and Last 2 Weeks

Now
54 °F

Clear.


Feels Like: 53 °F
Forecast: 76 / 47 °F
Wind: 3 mph from Northwest

Location: Cleburne Municipal Airport

Current Time: Oct 22, 2019 at 1:40:45 am

Latest Report: Oct 22, 2019 at 12:55 am


Visibility: 10 mi

Pressure: 30.11 "Hg

Humidity: 54%

Dew Point: 37 °F

Location of CleburneLocation

Past Weather in Cleburne — Graph

°F

Cleburne Temperature Yesterday

Maximum temperature yesterday: 79 °F (at 12:15 am)
Minimum temperature yesterday: 52 °F (at 11:55 pm)
Average temperature yesterday: 64 °F

High & Low Weather Summary for the Past Weeks

 TemperatureHumidityPressure
High93 °F (Oct 10, 3:35 pm)100% (Oct 9, 6:55 am)30.33 "Hg (Oct 9, 6:55 am)
Low37 °F (Oct 12, 5:15 am)17% (Oct 12, 2:55 pm)29.57 "Hg (Oct 20, 11:55 pm)
Average66 °F61%29.99 "Hg
* Reported Oct 7 12:15 am — Oct 22 12:35 am, Cleburne. Weather by CustomWeather, © 2019

Note: Actual official high and low records may vary slightly from our data, if they occured in-between our weather recording intervals... More about our weather records

Advertising

Cleburne Weather History for the Previous 24 Hours

Scroll right to see more
 ConditionsComfort  
Time TempWeatherWind HumidityBarometerVisibility
12:35 am
Tue, Oct 22
54 °FClear.No wind58%30.11 "Hg10 mi
12:15 am54 °FClear.No wind58%30.11 "Hg10 mi
11:55 pm
Mon, Oct 21
52 °FClear.No wind72%30.11 "Hg10 mi
11:35 pm54 °FClear.No wind63%30.11 "Hg10 mi
11:15 pm55 °FClear.No wind51%30.10 "Hg10 mi
10:55 pm61 °FClear.3 mph39%30.09 "Hg10 mi
10:35 pm59 °FClear.7 mph42%30.09 "Hg10 mi
10:15 pm61 °FClear.6 mph39%30.08 "Hg10 mi
9:55 pm57 °FClear.5 mph48%30.07 "Hg7 mi
9:35 pm59 °FClear.3 mph45%30.06 "Hg8 mi
9:15 pm57 °FClear.3 mph51%30.05 "Hg10 mi
8:55 pm61 °FClear.6 mph42%30.04 "Hg10 mi
8:35 pm63 °FClear.6 mph37%30.03 "Hg10 mi
8:15 pm63 °FClear.8 mph39%30.02 "Hg10 mi
7:55 pm64 °FClear.5 mph32%30.01 "Hg10 mi
7:35 pm64 °FClear.6 mph32%30.00 "Hg7 mi
7:15 pm64 °FClear.6 mph30%29.98 "Hg7 mi
6:55 pm66 °FClear.5 mph30%29.97 "Hg10 mi
6:35 pm68 °FSunny.3 mph33%29.96 "Hg10 mi
6:15 pm70 °FSunny.3 mph27%29.95 "Hg8 mi
5:55 pm72 °FSunny.5 mph23%29.95 "Hg9 mi
5:35 pm72 °FSunny.3 mph22%29.95 "Hg10 mi
5:15 pm72 °FSunny.5 mph20%29.94 "Hg10 mi
4:35 pm72 °FSunny.3 mph20%29.93 "Hg10 mi
4:15 pm72 °FSunny.9 mph22%29.93 "Hg10 mi
3:55 pm72 °FSunny.7 mph22%29.93 "Hg10 mi
3:35 pm72 °FSunny.No wind22%29.93 "Hg10 mi
3:15 pm72 °FSunny.8 mph23%29.93 "Hg10 mi
2:55 pm72 °FSunny.8 mph23%29.94 "Hg10 mi
2:35 pm72 °FSunny.8 mph23%29.95 "Hg10 mi
2:15 pm72 °FSunny.10 mph25%29.95 "Hg10 mi
1:55 pm70 °FSunny.9 mph25%29.95 "Hg10 mi
1:35 pm70 °FSunny.13 mph27%29.96 "Hg10 mi
1:15 pm70 °FSunny.12 mph25%29.96 "Hg10 mi
12:55 pm70 °FSunny.13 mph25%29.97 "Hg10 mi
12:35 pm68 °FSunny.14 mph26%29.97 "Hg10 mi
12:15 pm68 °FSunny.14 mph26%29.97 "Hg10 mi
11:55 am68 °FSunny.16 mph26%29.97 "Hg10 mi
11:35 am66 °FSunny.14 mph30%29.96 "Hg10 mi
11:15 am66 °FSunny.15 mph30%29.97 "Hg10 mi
10:55 am66 °FSunny.20 mph28%29.96 "Hg10 mi
10:35 am64 °FSunny.18 mph32%29.96 "Hg10 mi
10:15 am63 °FSunny.13 mph37%29.95 "Hg10 mi
9:55 am63 °FSunny.13 mph39%29.95 "Hg10 mi
9:35 am61 °FSunny.13 mph45%29.94 "Hg10 mi
9:15 am59 °FSunny.12 mph51%29.93 "Hg10 mi
8:55 am55 °FSunny.8 mph59%29.93 "Hg10 mi
8:35 am54 °FSunny.7 mph63%29.92 "Hg10 mi
8:15 am54 °FSunny.8 mph67%29.91 "Hg10 mi
7:55 am54 °FSunny.9 mph63%29.90 "Hg10 mi
7:35 am54 °FClear.9 mph67%29.89 "Hg10 mi
7:15 am54 °FClear.9 mph72%29.88 "Hg10 mi
6:55 am55 °FClear.6 mph72%29.88 "Hg10 mi
6:35 am55 °FClear.9 mph77%29.87 "Hg10 mi
6:15 am57 °FClear.8 mph77%29.86 "Hg10 mi
5:55 am57 °FClear.6 mph82%29.85 "Hg10 mi
5:35 am57 °FClear.6 mph82%29.84 "Hg10 mi
5:15 am59 °FClear.9 mph77%29.82 "Hg10 mi
4:35 am61 °FClear.6 mph72%29.81 "Hg10 mi
3:55 am61 °FClear.3 mph72%29.80 "Hg10 mi
3:35 am63 °FPassing clouds.5 mph68%29.80 "Hg10 mi
3:15 am63 °FPassing clouds.9 mph68%29.80 "Hg10 mi
2:55 am64 °FPassing clouds.10 mph64%29.80 "Hg10 mi
2:35 am64 °FThundershowers. Overcast.16 mph88%29.79 "Hg10 mi
2:15 am66 °FPartly cloudy.7 mph100%29.75 "Hg10 mi
1:55 am66 °FThundershowers. Mostly cloudy.9 mph100%29.73 "Hg10 mi
1:35 am66 °FThunderstorms. Overcast.13 mph100%29.72 "Hg6 mi
1:15 am66 °FThundershowers. Overcast.14 mph94%29.68 "Hg2 mi
Weather by CustomWeather, © 2019

See weather overview